Date String (YYYY-MM-DD hh:mm:ss) UTC,Instrument flags,Ambient pressure (hPa),Sample flow (lpm),Bypass flow (lpm),Sample temperature (°C),Ambient temperature (°C),ASC tube jacket temperature (°C),LED temperature (°C),Box temperature (°C),Sample RH (%),Span deviation,Mass concentration (μg/m³),Mass concentration (μg/m³),Mass concentration (μg/m³)
DateTimeUTC,F1_M11,P_M11,Q1_M11,Q2_M11,T1_M11,T2_M11,T3_M11,T4_M11,T5_M11,U1_M11,ZSPAN_M11,X0_M11,X2_M11,X1_M11
2023-01-09 11:00:00,,0824.5,5.02,0.00,22.2,21.5,00.0,31.1,23.9,11.8,0000.0,0002.01,0000.71,0000.60
2023-01-09 11:01:00,,0824.6,4.99,0.00,22.3,22.5,00.0,31.1,24.2,11.8,0000.0,0002.04,0000.72,0000.60
2023-01-09 11:02:00,,0824.6,5.00,0.00,22.4,23.1,00.0,31.1,24.5,11.9,0000.0,0002.06,0000.73,0000.60
2023-01-09 11:03:00,,0824.6,4.99,0.00,22.5,22.7,00.0,31.2,24.5,12.1,0000.0,0001.94,0000.72,0000.60
2023-01-09 11:04:00,,0824.6,5.01,0.00,22.5,22.1,00.0,31.2,24.3,12.1,0000.0,0001.11,0000.72,0000.59
2023-01-09 11:05:00,,0824.7,4.99,0.00,22.5,21.7,00.0,31.2,24.2,11.9,0000.0,0001.07,0000.73,0000.58
2023-01-09 11:06:00,,0824.7,5.00,0.00,22.4,21.4,00.0,31.2,24.1,11.7,0000.0,0001.13,0000.74,0000.57
2023-01-09 11:07:00,,0824.6,5.00,0.00,22.4,21.1,00.0,31.2,24.0,11.8,0000.0,0001.13,0000.73,0000.57
2023-01-09 11:08:00,,0824.5,5.00,0.00,22.3,20.9,00.0,31.2,23.9,11.9,0000.0,0001.13,0000.73,0000.56
2023-01-09 11:09:00,,0824.6,5.00,0.00,22.3,20.8,00.0,31.2,23.8,12.1,0000.0,0001.22,0000.74,0000.56
2023-01-09 11:10:00,,0824.5,5.00,0.00,22.2,20.6,00.0,31.2,23.8,12.1,0000.0,0001.23,0000.74,0000.56
2023-01-09 11:11:00,,0824.5,4.98,0.00,22.2,20.5,00.0,31.2,23.7,11.9,0000.0,0001.56,0000.74,0000.55
2023-01-09 11:12:00,,0824.5,5.00,0.00,22.2,20.4,00.0,31.1,23.7,12.2,0000.0,0001.79,0000.74,0000.55
2023-01-09 11:13:00,,0824.5,5.02,0.00,22.2,21.4,00.0,31.1,23.9,12.2,0000.0,0001.76,0000.72,0000.54
2023-01-09 11:14:00,,0824.5,4.99,0.00,22.3,22.4,00.0,31.1,24.3,12.2,0000.0,0002.00,0000.72,0000.53
2023-01-09 11:15:00,,0824.5,5.00,0.00,22.5,23.0,00.0,31.1,24.5,12.0,0000.0,0003.41,0000.73,0000.55
2023-01-09 11:16:00,,0824.4,4.98,0.00,22.5,22.5,00.0,31.2,24.4,12.1,0000.0,0003.36,0000.71,0000.56
2023-01-09 11:17:00,,0824.3,5.00,0.00,22.5,22.0,00.0,31.2,24.3,12.0,0000.0,0003.35,0000.72,0000.56
2023-01-09 11:18:00,,0824.3,5.00,0.00,22.5,21.7,00.0,31.2,24.2,11.9,0000.0,0003.31,0000.71,0000.56
2023-01-09 11:19:00,,0824.2,5.00,0.00,22.4,21.4,00.0,31.2,24.1,11.9,0000.0,0003.37,0000.72,0000.56
2023-01-09 11:20:00,,0824.2,5.00,0.00,22.4,21.1,00.0,31.2,24.0,12.0,0000.0,0003.35,0000.72,0000.56
2023-01-09 11:21:00,,0824.2,5.01,0.00,22.3,20.9,00.0,31.2,23.9,11.8,0000.0,0003.35,0000.72,0000.56
2023-01-09 11:22:00,,0824.3,5.00,0.00,22.3,20.6,00.0,31.2,23.8,11.9,0000.0,0003.01,0000.74,0000.56
2023-01-09 11:23:00,,0824.2,5.00,0.00,22.2,20.5,00.0,31.2,23.7,12.3,0000.0,0003.20,0000.72,0000.56
2023-01-09 11:24:00,,0824.2,5.01,0.00,22.2,20.3,00.0,31.2,23.6,12.4,0000.0,0003.98,0000.74,0000.56
2023-01-09 11:25:00,,0824.2,5.00,0.00,22.1,20.5,00.0,31.1,23.7,12.2,0000.0,0004.00,0000.75,0000.57
2023-01-09 11:26:00,,0824.2,5.00,0.00,22.2,21.5,00.0,31.1,24.0,12.2,0000.0,0002.99,0000.77,0000.56
2023-01-09 11:27:00,,0824.2,4.99,0.00,22.3,22.6,00.0,31.1,24.3,12.0,0000.0,0003.76,0000.80,0000.55
2023-01-09 11:28:00,,0824.2,4.99,0.00,22.4,22.7,00.0,31.2,24.4,12.0,0000.0,0003.76,0000.78,0000.54
2023-01-09 11:29:00,,0824.2,5.00,0.00,22.5,22.3,00.0,31.2,24.3,12.1,0000.0,0003.81,0000.79,0000.54
2023-01-09 11:30:00,,0824.1,5.00,0.00,22.4,21.9,00.0,31.2,24.2,12.2,0000.0,0003.81,0000.81,0000.54
2023-01-09 11:31:00,,0824.1,4.99,0.00,22.4,21.5,00.0,31.2,24.1,12.1,0000.0,0003.74,0000.79,0000.54
2023-01-09 11:32:00,,0824.1,5.02,0.00,22.4,21.2,00.0,31.2,24.0,12.1,0000.0,0003.73,0000.79,0000.55
2023-01-09 11:33:00,,0824.2,4.99,0.00,22.3,20.9,00.0,31.2,23.9,12.2,0000.0,0003.66,0000.77,0000.55
2023-01-09 11:34:00,,0824.1,4.99,0.00,22.3,20.7,00.0,31.2,23.8,12.4,0000.0,0003.70,0000.78,0000.55
2023-01-09 11:35:00,,0824.1,5.00,0.00,22.2,20.5,00.0,31.2,23.7,12.4,0000.0,0002.81,0000.80,0000.55
2023-01-09 11:36:00,,0824.0,5.00,0.00,22.2,20.4,00.0,31.2,23.6,12.2,0000.0,0002.64,0000.82,0000.55
2023-01-09 11:37:00,,0824.0,5.01,0.00,22.1,20.3,00.0,31.1,23.5,12.2,0000.0,0002.64,0000.81,0000.56
2023-01-09 11:38:00,,0824.0,5.00,0.00,22.0,20.2,00.0,31.1,23.5,12.6,0000.0,0001.57,0000.80,0000.56
2023-01-09 11:39:00,,0824.1,5.00,0.00,22.1,21.0,00.0,31.0,23.8,12.5,0000.0,0001.49,0000.80,0000.57
2023-01-09 11:40:00,,0824.2,5.00,0.00,22.2,22.1,00.0,31.0,24.1,12.4,0000.0,0001.50,0000.79,0000.56
2023-01-09 11:41:00,,0824.2,4.99,0.00,22.4,22.8,00.0,31.1,24.4,12.4,0000.0,0001.53,0000.80,0000.56
2023-01-09 11:42:00,,0824.2,5.00,0.00,22.4,22.5,00.0,31.2,24.4,12.3,0000.0,0001.51,0000.80,0000.57
2023-01-09 11:43:00,,0824.2,5.00,0.00,22.4,22.0,00.0,31.2,24.2,12.4,0000.0,0001.50,0000.80,0000.57
2023-01-09 11:44:00,,0824.3,5.00,0.00,22.4,21.5,00.0,31.2,24.1,12.2,0000.0,0001.50,0000.79,0000.57
2023-01-09 11:45:00,,0824.3,5.00,0.00,22.4,21.2,00.0,31.2,24.0,12.3,0000.0,0001.60,0000.79,0000.56
2023-01-09 11:46:00,,0824.3,5.00,0.00,22.3,21.0,00.0,31.2,23.9,12.4,0000.0,0001.56,0000.75,0000.55
2023-01-09 11:47:00,,0824.4,5.00,0.00,22.3,20.7,00.0,31.2,23.8,12.3,0000.0,0001.47,0000.73,0000.54
2023-01-09 11:48:00,,0824.3,5.01,0.00,22.2,20.6,00.0,31.1,23.7,12.2,0000.0,0001.41,0000.70,0000.52
2023-01-09 11:49:00,,0824.4,5.01,0.00,22.1,20.4,00.0,31.1,23.6,12.2,0000.0,0001.24,0000.66,0000.52
2023-01-09 11:50:00,,0824.4,5.01,0.00,22.1,20.3,00.0,31.1,23.5,12.2,0000.0,0001.13,0000.66,0000.52
2023-01-09 11:51:00,,0824.6,5.01,0.00,22.0,20.2,00.0,31.1,23.5,12.3,0000.0,0001.09,0000.67,0000.52
2023-01-09 11:52:00,,0824.4,5.01,0.00,22.0,20.7,00.0,31.0,23.7,12.3,0000.0,0001.26,0000.66,0000.51
2023-01-09 11:53:00,,0824.5,5.00,0.00,22.1,21.8,00.0,31.0,24.0,12.1,0000.0,0001.25,0000.66,0000.50
2023-01-09 11:54:00,,0824.5,4.99,0.00,22.3,22.7,00.0,31.0,24.3,12.1,0000.0,0001.27,0000.66,0000.50
2023-01-09 11:55:00,,0824.8,5.00,0.00,22.4,22.6,00.0,31.1,24.4,11.8,0000.0,0001.27,0000.66,0000.49
2023-01-09 11:56:00,,0824.5,5.00,0.00,22.4,22.2,00.0,31.1,24.3,12.1,0000.0,0001.17,0000.66,0000.49
2023-01-09 11:57:00,,0824.5,4.99,0.00,22.4,21.7,00.0,31.2,24.2,11.9,0000.0,0002.32,0000.66,0000.50
2023-01-09 11:58:00,,0824.5,5.01,0.00,22.4,21.4,00.0,31.2,24.0,12.1,0000.0,0002.48,0000.65,0000.51
2023-01-09 11:59:00,,0824.5,5.01,0.00,22.3,21.1,00.0,31.1,23.9,12.1,0000.0,0002.49,0000.66,0000.51
